Location: SAPM � Hemmingford
(45.0500°N, 73.5833°W)
Time: 13:00:42
(UTC-04:00)

Tiangong 2 - Visible Passes

Search period start: 19 August 2018 00:00
Search period end: 29 August 2018 00:00
Orbit: 384 x 395 km, 42.8° (Epoch: 19 August)

Date Brightness Start Highest point End Pass type
(mag) Time Alt. Az. Time Alt. Az. Time Alt. Az.
19 Aug 3.1 04:06:55 18° SSE 04:06:55 18° SSE 04:09:01 10° ESE visible
20 Aug 1.9 04:44:01 24° SW 04:45:23 37° SSE 04:48:23 10° E visible
21 Aug 3.1 03:48:46 22° ESE 03:48:46 22° ESE 03:50:24 10° E visible
21 Aug 1.4 05:21:05 10° WSW 05:24:11 56° S 05:27:21 10° E visible
22 Aug 1.4 04:25:51 43° SSW 04:26:21 49° S 04:29:28 10° E visible
23 Aug 3.6 03:30:37 17° ESE 03:30:37 17° ESE 03:31:33 10° E visible
23 Aug 1.3 05:02:56 17° WSW 05:05:11 57° S 05:08:21 10° ESE visible
24 Aug 1.5 04:07:46 50° SE 04:07:46 50° SE 04:10:29 10° E visible
25 Aug 1.3 04:45:00 31° WSW 04:46:09 50° S 04:49:16 10° ESE visible
26 Aug 3.0 03:50:00 23° ESE 03:50:00 23° ESE 03:51:26 10° ESE visible
26 Aug 2.2 05:22:20 12° W 05:24:52 28° SSW 05:27:41 10° SE visible
27 Aug 1.9 04:27:28 36° S 04:27:28 36° S 04:30:03 10° SE visible
28 Aug 2.7 05:05:10 18° SW 05:05:39 19° SSW 05:08:00 10° SSE visible
